| time (UTC) | temp F | wind direction | speed MPH | gust MPH | rain 1hr in | rain 24hr in | rain mn in | humidity % | barometer mb |
| 20260505012517 | 57 | 293 | 6.0 | 13.0 | 0.00 | 0.00 | 0.00 | 40 | 1000.5 |
| 20260505011517 | 58 | 315 | 7.0 | 14.0 | 0.00 | 0.00 | 0.00 | 40 | 1000.2 |
| 20260505010516 | 58 | 293 | 9.0 | 15.0 | 0.00 | 0.00 | 0.00 | 39 | 1000.4 |
| 20260505005537 | 58 | 293 | 7.0 | 21.0 | 0.00 | 0.00 | 0.00 | 38 | 1000.4 |
| 20260505004516 | 59 | 270 | 7.0 | 16.0 | 0.00 | 0.00 | 0.00 | 37 | 1000.5 |
| 20260505003536 | 59 | 293 | 10.0 | 16.0 | 0.00 | 0.00 | 0.00 | 34 | 1000.4 |
| 20260505002516 | 60 | 270 | 9.0 | 18.0 | 0.00 | 0.00 | 0.00 | 34 | 1000.0 |
| 20260505001536 | 60 | 270 | 9.0 | 20.0 | 0.00 | 0.00 | 0.00 | 34 | 999.9 |
| 20260505000517 | 61 | 270 | 8.0 | 17.0 | 0.00 | 0.00 | 0.00 | 33 | 999.8 |
| 20260504235557 | 61 | 248 | 11.0 | 20.0 | 0.00 | 0.00 | 0.00 | 33 | 999.6 |
| 20260504234516 | 62 | 270 | 9.0 | 24.0 | 0.00 | 0.00 | 0.00 | 32 | 999.6 |
| 20260504233516 | 62 | 270 | 11.0 | 19.0 | 0.00 | 0.00 | 0.00 | 32 | 999.5 |
| 20260504232536 | 62 | 248 | 11.0 | 26.0 | 0.00 | 0.00 | 0.00 | 34 | 999.3 |
| 20260504231558 | 63 | 270 | 8.0 | 15.0 | 0.00 | 0.00 | 0.00 | 34 | 999.4 |
| 20260504230516 | 63 | 270 | 8.0 | 17.0 | 0.00 | 0.00 | 0.00 | 35 | 999.3 |
| 20260504225516 | 63 | 270 | 9.0 | 18.0 | 0.00 | 0.00 | 0.00 | 34 | 999.2 |
| 20260504224516 | 63 | 270 | 10.0 | 18.0 | 0.00 | 0.00 | 0.00 | 34 | 999.1 |
| 20260504223516 | 64 | 270 | 8.0 | 16.0 | 0.00 | 0.00 | 0.00 | 33 | 999.1 |
| 20260504222516 | 64 | 270 | 13.0 | 23.0 | 0.00 | 0.00 | 0.00 | 32 | 999.1 |
| 20260504221516 | 65 | 270 | 9.0 | 19.0 | 0.00 | 0.00 | 0.00 | 32 | 999.0 |
| 20260504220516 | 66 | 270 | 14.0 | 27.0 | 0.00 | 0.00 | 0.00 | 32 | 998.8 |
| 20260504215516 | 67 | 293 | 11.0 | 20.0 | 0.00 | 0.00 | 0.00 | 31 | 998.6 |
| 20260504214536 | 68 | 293 | 12.0 | 21.0 | 0.00 | 0.00 | 0.00 | 30 | 998.5 |
| 20260504213516 | 69 | 270 | 9.0 | 23.0 | 0.00 | 0.00 | 0.00 | 32 | 998.2 |
| 20260504212516 | 69 | 293 | 11.0 | 22.0 | 0.00 | 0.00 | 0.00 | 34 | 998.0 |
| 20260504211536 | 70 | 293 | 10.0 | 21.0 | 0.00 | 0.00 | 0.00 | 34 | 998.1 |
| 20260504210516 | 70 | 293 | 12.0 | 25.0 | 0.00 | 0.00 | 0.00 | 37 | 997.9 |
| 20260504205516 | 71 | 270 | 10.0 | 25.0 | 0.00 | 0.00 | 0.00 | 34 | 997.9 |
| 20260504204516 | 71 | 315 | 10.0 | 19.0 | 0.00 | 0.00 | 0.00 | 39 | 997.8 |
| 20260504203516 | 71 | 270 | 11.0 | 22.0 | 0.00 | 0.00 | 0.00 | 37 | 997.8 |
| 20260504202516 | 72 | 293 | 12.0 | 25.0 | 0.00 | 0.00 | 0.00 | 36 | 997.7 |
| 20260504201516 | 73 | 293 | 10.0 | 20.0 | 0.00 | 0.00 | 0.00 | 40 | 997.6 |
| 20260504200516 | 73 | 293 | 10.0 | 20.0 | 0.00 | 0.00 | 0.00 | 38 | 997.4 |
| 20260504195516 | 73 | 270 | 13.0 | 25.0 | 0.00 | 0.00 | 0.00 | 37 | 997.5 |
| 20260504194516 | 73 | 270 | 14.0 | 29.0 | 0.00 | 0.00 | 0.00 | 36 | 997.2 |
| 20260504193516 | 74 | 293 | 12.0 | 26.0 | 0.00 | 0.00 | 0.00 | 40 | 997.4 |
| 20260504192516 | 74 | 270 | 11.0 | 22.0 | 0.00 | 0.00 | 0.00 | 39 | 997.4 |
| 20260504191538 | 74 | 248 | 10.0 | 16.0 | 0.00 | 0.00 | 0.00 | 39 | 997.4 |
| 20260504190516 | 73 | 270 | 10.0 | 20.0 | 0.00 | 0.00 | 0.00 | 38 | 997.4 |
| 20260504185516 | 73 | 248 | 12.0 | 26.0 | 0.00 | 0.00 | 0.00 | 37 | 997.3 |
| 20260504184536 | 73 | 270 | 16.0 | 29.0 | 0.00 | 0.00 | 0.00 | 36 | 997.4 |
| 20260504183516 | 74 | 248 | 14.0 | 26.0 | 0.00 | 0.00 | 0.00 | 35 | 997.5 |
| 20260504182516 | 74 | 270 | 17.0 | 32.0 | 0.00 | 0.00 | 0.00 | 36 | 997.3 |
| 20260504181516 | 74 | 270 | 16.0 | 28.0 | 0.00 | 0.00 | 0.00 | 36 | 997.4 |
| 20260504180516 | 74 | 248 | 17.0 | 32.0 | 0.00 | 0.00 | 0.00 | 36 | 997.2 |
| 20260504175556 | 74 | 248 | 13.0 | 25.0 | 0.00 | 0.00 | 0.00 | 35 | 997.2 |
| 20260504174536 | 75 | 270 | 11.0 | 23.0 | 0.00 | 0.00 | 0.00 | 35 | 997.3 |
| 20260504173516 | 74 | 248 | 14.0 | 25.0 | 0.00 | 0.00 | 0.00 | 34 | 997.3 |
| 20260504172516 | 74 | 248 | 13.0 | 26.0 | 0.00 | 0.00 | 0.00 | 36 | 997.6 |
| 20260504171516 | 74 | 248 | 10.0 | 21.0 | 0.00 | 0.00 | 0.00 | 35 | 997.7 |
| 20260504170516 | 74 | 225 | 11.0 | 24.0 | 0.00 | 0.00 | 0.00 | 37 | 997.7 |
| 20260504150516 | 68 | 225 | 13.0 | 30.0 | 0.00 | 0.00 | 0.00 | 42 | 998.5 |
| 20260504140556 | 63 | 225 | 8.0 | 16.0 | 0.00 | 0.00 | 0.00 | 46 | 999.2 |
| 20260504130516 | 56 | 225 | 5.0 | 11.0 | 0.00 | 0.00 | 0.00 | 55 | 999.8 |
| 20260504110536 | 50 | 225 | 3.0 | 8.0 | 0.00 | 0.00 | 0.00 | 60 | 1000.5 |
| 20260504100515 | 50 | 225 | 5.0 | 12.0 | 0.00 | 0.00 | 0.00 | 60 | 1001.3 |
| 20260504081515 | 50 | 225 | 2.0 | 4.0 | 0.00 | 0.00 | 0.00 | 60 | 1002.3 |
| 20260504080517 | 50 | 225 | 2.0 | 6.0 | 0.00 | 0.00 | 0.00 | 60 | 1002.4 |
| 20260504050517 | 55 | 248 | 2.0 | 4.0 | 0.00 | 0.00 | 0.00 | 51 | 1004.6 |
| 20260504045516 | 55 | 248 | 3.0 | 4.0 | 0.00 | 0.00 | 0.00 | 51 | 1004.6 |
| 20260504044515 | 55 | 225 | 2.0 | 3.0 | 0.00 | 0.00 | 0.00 | 50 | 1004.7 |
| 20260504043516 | 56 | 248 | 3.0 | 4.0 | 0.00 | 0.00 | 0.00 | 49 | 1004.7 |
| 20260504042516 | 57 | 248 | 2.0 | 3.0 | 0.00 | 0.00 | 0.00 | 48 | 1004.7 |
| 20260504041536 | 58 | 248 | 3.0 | 5.0 | 0.00 | 0.00 | 0.00 | 46 | 1005.0 |
| 20260504040516 | 58 | 248 | 3.0 | 7.0 | 0.00 | 0.00 | 0.00 | 46 | 1005.1 |
| 20260504035515 | 59 | 248 | 2.0 | 3.0 | 0.00 | 0.00 | 0.00 | 45 | 1005.2 |
| 20260504034516 | 59 | 270 | 2.0 | 4.0 | 0.00 | 0.00 | 0.00 | 45 | 1005.4 |
| 20260504033515 | 58 | 270 | 2.0 | 3.0 | 0.00 | 0.00 | 0.00 | 46 | 1005.3 |
| 20260504032515 | 58 | 270 | 2.0 | 3.0 | 0.00 | 0.00 | 0.00 | 46 | 1005.4 |
| 20260504031515 | 58 | 270 | 2.0 | 3.0 | 0.00 | 0.00 | 0.00 | 46 | 1005.5 |
| 20260504030515 | 59 | 270 | 2.0 | 3.0 | 0.00 | 0.00 | 0.00 | 45 | 1005.5 |
| 20260504025515 | 59 | 270 | 2.0 | 4.0 | 0.00 | 0.00 | 0.00 | 44 | 1005.5 |
| 20260504024536 | 60 | 270 | 2.0 | 4.0 | 0.00 | 0.00 | 0.00 | 44 | 1005.6 |
| 20260504023516 | 60 | 270 | 2.0 | 3.0 | 0.00 | 0.00 | 0.00 | 43 | 1005.4 |
| 20260504022515 | 61 | 270 | 2.0 | 6.0 | 0.00 | 0.00 | 0.00 | 43 | 1005.3 |
| 20260504021516 | 62 | 270 | 2.0 | 4.0 | 0.00 | 0.00 | 0.00 | 40 | 1005.3 |
| 20260504020535 | 62 | 248 | 2.0 | 3.0 | 0.00 | 0.00 | 0.00 | 40 | 1005.2 |
| 20260504015515 | 62 | 248 | 2.0 | 6.0 | 0.00 | 0.00 | 0.00 | 40 | 1005.2 |
| 20260504014516 | 62 | 270 | 1.0 | 3.0 | 0.00 | 0.00 | 0.00 | 40 | 1005.0 |
| 20260504013535 | 63 | 0.0 | 2.0 | 0.00 | 0.00 | 0.00 | 39 | 1004.9 |